N3SW-13 Weather Reports


time (UTC)temp
F
wind
direction
speed
knots
gust
knots
rain 1hr
in
rain 24hr
in
rain mn
in
humidity
%
barometer
mb
20260508073045 48 302 0.0 2.6 0.00 0.01 0.00 59 1014.2
20260508071540 49 302 0.0 3.5 0.00 0.01 0.00 60 1014.1
20260508070037 49 317 0.0 2.6 0.00 0.01 0.00 60 1014.3
20260508064538 49 323 0.9 4.3 0.00 0.01 0.00 60 1014.3
20260508063035 49 288 0.0 1.7 0.00 0.01 0.00 61 1014.5
20260508061534 50 288 0.0 0.9 0.00 0.01 0.00 61 1014.5
20260508060039 50 288 0.0 0.0 0.00 0.01 0.00 62 1014.6
20260508054606 50 288 0.0 0.9 0.00 0.01 0.00 63 1014.5
20260508053043 50 288 0.0 0.9 0.00 0.01 0.00 64 1014.3
20260508051526 50 288 0.0 0.0 0.00 0.01 0.00 65 1014.0
20260508050023 51 288 0.0 1.7 0.00 0.01 0.00 65 1013.8
20260508044522 51 288 0.0 1.7 0.00 0.01 0.00 65 1013.6
20260508043026 51 288 0.0 1.7 0.00 0.01 0.00 65 1013.4
20260508041519 51 288 0.0 0.0 0.00 0.01 0.00 65 1013.2
20260508040016 52 288 0.0 0.0 0.00 0.01 0.00 64 1013.2
20260508034518 52 288 0.0 0.9 0.00 0.01 0.01 63 1013.0
20260508033020 52 288 0.0 1.7 0.00 0.01 0.01 64 1013.1
20260508031513 53 288 0.0 0.9 0.00 0.01 0.01 63 1012.8
20260508030009 53 288 0.0 0.0 0.00 0.01 0.01 63 1012.7
20260508024507 53 288 0.0 2.6 0.00 0.04 0.01 62 1012.5
20260508023006 53 288 0.0 2.6 0.00 0.04 0.01 63 1012.4
20260508021504 54 288 0.0 0.9 0.00 0.04 0.01 62 1012.1
20260508020001 54 288 0.0 0.0 0.00 0.04 0.01 63 1011.7
20260508014627 54 288 0.0 1.7 0.00 0.04 0.01 62 1011.4
20260508013101 55 288 0.0 0.9 0.00 0.04 0.01 62 1011.2
20260508011610 55 288 0.0 0.9 0.00 0.04 0.01 61 1011.1
20260508010059 55 288 0.0 2.6 0.00 0.04 0.01 61 1010.8
20260508004556 56 288 0.0 0.9 0.00 0.04 0.01 61 1010.7
20260508003055 56 288 0.0 1.7 0.00 0.04 0.01 61 1010.8
20260508001553 57 288 0.0 2.6 0.00 0.04 0.01 60 1010.5
20260508000051 58 288 0.0 2.6 0.00 0.04 0.01 60 1010.5
20260507234551 58 288 0.0 2.6 0.00 0.04 0.01 60 1010.3
20260507233051 59 336 0.0 4.3 0.00 0.04 0.01 57 1010.1
20260507231551 59 301 0.0 5.2 0.00 0.04 0.01 57 1009.8
20260507230049 59 281 0.0 6.1 0.00 0.04 0.01 58 1009.6
20260507224549 60 300 0.0 5.2 0.00 0.04 0.01 59 1009.5
20260507223048 61 260 0.0 3.5 0.00 0.04 0.01 59 1009.3
20260507221547 62 307 0.0 3.5 0.00 0.04 0.01 58 1009.1
20260507220046 63 310 0.9 4.3 0.00 0.04 0.01 59 1008.7
20260507214547 62 302 0.0 2.6 0.00 0.04 0.01 66 1008.9
20260507213041 61 302 0.0 0.0 0.00 0.04 0.01 72 1008.8
20260507211543 62 302 0.0 0.9 0.00 0.04 0.01 70 1008.9
20260507210039 62 302 0.0 1.7 0.00 0.04 0.01 70 1008.8
20260507204538 60 21 0.0 1.7 0.00 0.04 0.01 76 1008.5
20260507203038 58 21 0.0 2.6 0.00 0.04 0.01 79 1008.6
20260507201535 56 21 0.0 1.7 0.00 0.04 0.01 81 1008.6
20260507200035 56 21 0.0 0.0 0.00 0.04 0.01 83 1008.9
20260507194535 55 21 0.0 0.0 0.00 0.04 0.01 85 1009.3
20260507193036 55 21 0.0 0.0 0.00 0.04 0.01 84 1009.6
20260507191532 55 21 0.0 0.0 0.00 0.04 0.01 84 1009.7
20260507190031 55 21 0.0 0.0 0.00 0.04 0.01 85 1009.7
20260507184527 54 21 0.0 0.9 0.00 0.04 0.01 85 1010.1
20260507183040 54 21 0.0 0.0 0.00 0.04 0.01 87 1010.1
20260507181529 54 21 0.0 0.0 0.00 0.04 0.01 87 1009.9
20260507180032 54 21 0.0 0.0 0.00 0.04 0.01 87 1010.1
20260507174523 54 21 0.0 1.7 0.00 0.05 0.01 87 1010.1
20260507173022 54 21 0.0 0.9 0.00 0.05 0.01 86 1010.3
20260507171519 55 21 0.0 2.6 0.00 0.05 0.01 83 1010.2
20260507170019 55 20 0.0 2.6 0.00 0.05 0.01 81 1010.3
20260507164517 55 20 0.0 3.5 0.00 0.05 0.01 82 1010.2
20260507163016 56 19 0.0 4.3 0.00 0.05 0.01 81 1010.3
20260507161516 56 18 0.0 3.5 0.00 0.05 0.01 81 1010.1
20260507160034 56 19 0.0 5.2 0.00 0.05 0.01 81 1010.3
20260507154515 56 16 0.0 3.5 0.00 0.05 0.01 82 1010.5
20260507153012 56 16 0.0 5.2 0.00 0.05 0.01 81 1010.4
20260507151510 56 355 0.0 5.2 0.00 0.05 0.01 81 1010.4
20260507150011 57 347 0.9 5.2 0.00 0.05 0.01 82 1010.3
20260507144508 57 340 0.0 3.5 0.00 0.05 0.01 81 1010.3
20260507143008 57 336 0.0 2.6 0.00 0.05 0.01 82 1010.1
20260507141515 57 331 0.0 0.0 0.00 0.05 0.01 83 1010.2
20260507140007 57 331 0.0 3.5 0.00 0.05 0.01 84 1009.9
20260507134505 57 316 0.0 0.9 0.00 0.06 0.01 85 1010.3
20260507133004 57 316 0.0 1.7 0.00 0.06 0.01 86 1010.4
20260507131503 57 316 0.0 0.0 0.00 0.06 0.01 87 1010.4
20260507130002 57 316 0.0 0.0 0.00 0.06 0.01 89 1010.4
20260507124504 57 316 0.0 1.7 0.00 0.06 0.01 90 1010.4
20260507123002 57 316 0.0 0.0 0.00 0.06 0.01 90 1010.5
20260507121600 57 316 0.0 1.7 0.00 0.06 0.01 90 1010.4
20260507120059 57 316 0.0 1.7 0.00 0.06 0.01 90 1010.4
20260507114613 57 316 0.0 4.3 0.00 0.06 0.01 90 1010.3
20260507113057 57 317 0.0 1.7 0.01 0.06 0.01 90 1010.2
20260507111554 57 317 0.0 0.0 0.01 0.06 0.01 90 1009.9
20260507110053 57 317 0.0 0.0 0.01 0.06 0.01 89 1009.8
20260507104556 57 317 0.0 0.0 0.01 0.06 0.01 89 1009.8
20260507103051 57 315 0.0 3.5 0.00 0.05 0.00 89 1009.6
20260507101551 57 315 0.0 0.9 0.00 0.05 0.00 89 1009.6
20260507100049 57 315 0.0 0.0 0.00 0.05 0.00 89 1009.5
20260507094549 57 315 0.0 0.0 0.00 0.05 0.00 90 1009.7
20260507093047 58 315 0.0 0.0 0.00 0.05 0.00 91 1009.3
20260507091546 58 315 0.0 0.9 0.00 0.05 0.00 92 1009.6
20260507090045 58 315 0.0 0.0 0.00 0.05 0.00 92 1008.7
20260507084541 59 315 0.0 3.5 0.00 0.05 0.00 93 1009.0
20260507083039 60 315 0.0 0.0 0.00 0.05 0.00 94 1009.6
20260507081537 60 315 0.0 0.0 0.00 0.05 0.00 94 1009.3
20260507080038 60 315 0.0 0.0 0.00 0.05 0.00 95 1009.3
20260507074538 60 315 0.0 0.0 0.00 0.05 0.00 95 1009.5